Regional Weather Roundup
Issued by NWS

Home | Current Version | Previous Version | Graphics & Text | Print | Product List | Glossary On
Versions: 1 2 3 4 5 6 7 8 9 10 11 12 13 14 15 16 17 18 19 20 21 22 23 24 25 26 27 28 29 30 31 32 33 34 35 36 37 38 39 40 41 42 43 44 45 46 47 48 49 50
000
ASUS43 KTOP 191608
RWRKS

WEATHER ROUNDUP FOR KANSAS
NATIONAL WEATHER SERVICE GOODLAND KS
1000 AM CST MON FEB 19 2018

NOTE:  "FAIR" INDICATES FEW OR NO CLOUDS BELOW 12,000 FEET WITH NO
SIGNIFICANT WEATHER AND/OR OBSTRUCTIONS TO VISIBILITY.

KSZ001>006-013>018-027>032-041>047-191700-
NORTHWEST KANSAS

CITY           SKY/WX    TMP DP  RH WIND       PRES   REMARKS
GOODLAND       LGT SNOW  14  10  84 N13       29.78S FOG     WCI   0
HAYS           CLOUDY    22  16  78 N20       29.85  WCI   7
HILL CITY      CLOUDY    19  13  77 N16       29.86R WCI   4
RUSSELL        CLOUDY    24  19  81 N17       29.83R WCI  11
$$

KSZ061>065-074>080-084>089-191700-
SOUTHWEST KANSAS

CITY           SKY/WX    TMP DP  RH WIND       PRES   REMARKS
DODGE CITY     CLOUDY    23  32 100 N17       29.80S WCI   9
ELKHART        CLOUDY    26  23  90 NE9       29.78R
GARDEN CITY    CLOUDY    21  15  78 N16       29.80S WCI   7
GREAT BEND     CLOUDY    24  19  81 N18       29.84R WCI  10
LIBERAL        CLOUDY    25  19  78 N17       29.81R WCI  12
PRATT          CLOUDY    26  21  83 N20       29.81S WCI  12
$$

KSZ066>073-081>083-090>101-191700-
SOUTHEAST KANSAS

CITY           SKY/WX    TMP DP  RH WIND       PRES   REMARKS
CHANUTE        CLOUDY    66  61  84 S20G32    29.73R
COFFEYVILLE    CLOUDY    63  62  97 S20G28    29.74R
HUTCHINSON     CLOUDY    28  25  88 N14       29.82R FOG     WCI  17
MEDICINE LODGE   N/A     29  24  82 N20G31    29.79R WCI  16
NEWTON         CLOUDY    28  26  92 NW17      29.81R WCI  16
PARSONS        LGT RAIN  65  62  90 S16G29    29.74R
WICHITA INTL   CLOUDY    32  29  88 N15       29.80R WCI  22
WICHITA JABRA    N/A     32  30  92 N14       29.79S WCI  22
WICHITA MCCONL CLOUDY    34  28  80 N15G23    29.78  WCI  24
WINFIELD       CLOUDY    42  36  79 NW15      29.79R
$$

KSZ007>012-019>026-033>040-048>060-102>105-191700-
NORTHEAST KANSAS

CITY           SKY/WX    TMP DP  RH WIND       PRES   REMARKS
CONCORDIA      CLOUDY    21  19  92 NW18      29.83R WCI   6
EMPORIA        CLOUDY    37  31  78 NW10      29.78R WCI  30
LAWRENCE       PTSUNNY   42  38  85 W20       29.74R
MANHATTAN      CLOUDY    29  24  82 N10       29.81R WCI  20
MARYSVILLE     LGT SNOW  27  25  93 N13       29.80R WCI  16
OLATHE IND     CLOUDY    67  60  78 S21G30    29.69R
OLATHE EXE     CLOUDY    65  59  81 SW18G30   29.68R
SALINA         CLOUDY    26  22  84 N17       29.85R WCI  13
TOPEKA BILLARD CLOUDY    36  34  92 NW16      29.77R WCI  26
TOPEKA FORBES  CLOUDY    37  35  92 NW20      29.75R FOG     WCI  27
$$




USA.gov is the U.S. government's official web portal to all federal, state and local government web resources and services.